Showing default

OPS 9845 (DMSP 5D-2 F6), 13736

Orbit data source: Space-Track

OPS 9845 (DMSP 5D-2 F6), 13736 is a payload satellite owned by USAF SD (US) in SSO that was launched on Tue, 21 Dec 1982 UTC via an ATLAS E launch vehicle from the Air Force Western Test Range (AFWTR). Payload-class satellites include a variety of spacecraft equipped with specific instruments for various scientific and technological missions. These include communications satellites like Starlink; space stations such as the ISS; scientific satellites like the Hubble; Earth observation satellites from companies like Planet Labs, Umbra, and HawkEye 360; GPS; miniature CubeSats for education and research; and military/defense satellites.

Loading next visibility...
Identifier
13736, 1982-118A
Orbit
SSO
Country
Flag of USUS
Related business
Manufacturer
RCA/East Windsor
Mission
Non-operational spacecraft
Bus & Motor
BLOCK 5D, STAR 37S
Mass
1,474 kg wet, 760 kg dry
Launch date (UTC)
1982-12-21 (43 years ago)
Launch vehicle
ATLAS E
Launch site
Air Force Western Test Range (AFWTR)
Object type
Payload
Rocket body
Debris
Shape & HBR
Unknown
Radar Cross Section
Large (>1 m²)

Expand to show TLE details & history
Last TLE update: 6 hours ago

TLE from 6 hours ago
0 OPS 9845 (DMSP 5D-2 F6)
1 13736U 82118A   25300.50346043  .00000269  00000-0  12049-3 0  9991
2 13736  98.5916 125.9555 0006573 293.4323  66.6168 14.30390312231745
Epoch: 2025-10-27T12:04Z
TLE epoch observation values (Epoch: 2025-10-27T12:04:58.981Z)
Latitude
-0.00002°
Longitude
-91.39462°
Altitude
791.491 km
Speed
7.459 km/s
True Right ascension
08h 23m 49s
True Declination
0° 00' 00"
Sunlit
Object was in daylight at epoch
Visualization orbit readout
Latitude
Unknown
Longitude
Unknown
Altitude
Unknown
Speed
Unknown
Apparent Right ascension
Unknown
Apparent Declination
Unknown
Sunlit
N/A
Visualization observer readout
Local Sidereal Time
13:18:06
Azimuth
Unknown
Elevation
Unknown
Doppler factor
Unknown
Orbital elements
Apogee altitude
792.276 km
Perigee altitude
782.856 km
Semi-major axis
7,165.703 km
Eccentricity
0.00066
Inclination
98.5916°
RAAN
125.9555°
Arg. of periapsis
293.4323°
True anomaly
66.68596°
Mean anomaly
66.6168°
Eccentric anomaly
66.65138°
Mean motion
3.57812 °/min
Orbital period
100.61 mins
BSTAR
0.00012049
Loading maneuver chart data...
Computing Atmospheric mass density...
Loading historical data...
Loading historical data...
Loading historical data...
Loading historical data...
Loading historical data...
Loading historical data...
Loading historical data...

Documentation

Showing up to 5 results
|